STARLINK-3921 (52613 NORAD) Tracking and Keplerian Element Data
This shows tracking and keplerian element data for the satellite.
Feedback or suggestion? Click here.
Element | Value |
Catalog | 52613 |
Name | STARLINK-3921 |
Epoch Orbit | 130 |
Epoch Day | 167.08334491 |
Epoch Year | 2022 |
RAAN | 280.0263 |
Inclination | 53.2142 |
Eccentricity | 0.0001616 |
Argument of Perigee | 37.8241 |
Mean Anonmoly | 347.4568 |
Mean Motion | 15.73266345 |
Decay Rate | -0.00032928 |
L1 | 1 52613U 22052R 22167.08334491 -.00032928 00000+0 -23044-3 0 9999 |
L2 | 2 52613 53.2142 280.0263 0001616 37.8241 347.4568 15.73266345 1309 |
Live tracking and technical data element details for STARLINK-3921 (NORAD 52613). STARLINK-3921 can be tracked NOW for your location showing map with azimuth and elevation plus other details from your city location.
Track the satellite on the map from your city or location and see movement details for azimuth, elevation, latitude, longitude, range, height, and movement on the map or in text.
IsCatalogInMostPopularTable: catalog: 52613, numindb: 1
Update: records affected: 1
GetName: 52613 STARLINK-3921
Hit Count: updated at: Mon, 27 Jun 2022 06:07:19 GMT